Hourly Weather Roundup
Issued by NWS Central Illinois

Home | Current Version | Previous Version | Text Only | Print | Product List | Glossary On
Versions: 1 2 3 4 5 6 7 8 9 10 11 12 13 14 15 16 17 18 19 20 21 22 23 24 25 26 27 28 29 30 31 32 33 34 35 36 37 38 39 40 41 42 43 44 45 46 47 48 49 50
000
NZUS43 KILX 101810
HWRILX

Area Weather Roundup
National Weather Service Lincoln IL
1200 PM CST SUN DEC 10 2017

NOTE:  "FAIR" indicates few or no clouds below 12,000 feet, with
       no sigificant weather and/or obstructions to visibility.


CITY           SKY/WX    TMP DP  RH WIND       PRES   REMARKS
Bloomington    MOSUNNY   36  20  52 W14G24    29.93R WCI  27
6HR MIN TEMP:  23; 6HR MAX TEMP:  38;

Champaign      PTSUNNY   38  21  50 SW21G30   29.93F WCI  28
6HR MIN TEMP:  24; 6HR MAX TEMP:  39;

Danville       PTSUNNY   35  20  55 SW17G24   29.90F WCI  25
6HR MIN TEMP:  22; 6HR MAX TEMP:  35;

Decatur        CLOUDY    37  21  52 SW20      29.93F WCI  27
6HR MIN TEMP:  24; 6HR MAX TEMP:  37;

Effingham      CLOUDY    40  23  51 SW15G22   30.01F WCI  31
6HR MIN TEMP:  24; 6HR MAX TEMP:  40;

Flora          PTSUNNY   40  24  52 SW17G23   30.02F WCI  32
6HR MIN TEMP:  24; 6HR MAX TEMP:  41;

Galesburg      SUNNY     38  26  62 NW15      29.94F WCI  29
6HR MIN TEMP:  23; 6HR MAX TEMP:  38;

Jacksonville   MOSUNNY   39  23  52 W14       29.96F WCI  31
6HR MIN TEMP:  23; 6HR MAX TEMP:  39;

Lacon          SUNNY     36  22  55 W9        29.91F WCI  29
6HR MIN TEMP:  24; 6HR MAX TEMP:  36;

Lawrenceville  PTSUNNY   38  22  52 S21G28    30.04F WCI  28
6HR MIN TEMP:  23; 6HR MAX TEMP:  39;

Litchfield     PTSUNNY   40  23  50 W15       29.98F WCI  31
6HR MIN TEMP:  21; 6HR MAX TEMP:  40;

$$


CITY           SKY/WX    TMP DP  RH WIND       PRES   REMARKS
Lincoln        MOSUNNY   38  23  54 W8        29.94S WCI  32
6HR MIN TEMP:  26; 6HR MAX TEMP:  39;

Macomb         SUNNY     39  25  56 W17       29.98S WCI  30
6HR MIN TEMP:  23; 6HR MAX TEMP:  39;

Mattoon        MOSUNNY   37  23  56 SW18G28   29.95F WCI  27
6HR MIN TEMP:  23; 6HR MAX TEMP:  37;

Mt Carmel AP   MOSUNNY   37  21  52 SW20      30.04F WCI  26
6HR MIN TEMP:  22; 6HR MAX TEMP:  37;

Olney-Noble AP CLOUDY    39  19  44 S14G21    30.03F WCI  31
Paris AP       PTSUNNY   36  22  58 S20       29.97F WCI  25
6HR MIN TEMP:  23; 6HR MAX TEMP:  36;

Peoria         SUNNY     38  22  52 W10G22    29.94S WCI  31
6HR MIN TEMP:  24; 6HR MAX TEMP:  38;

Pontiac        SUNNY     36  21  55 W17       29.92F WCI  25
6HR MIN TEMP:  25; 6HR MAX TEMP:  36;

Rantoul        MOSUNNY   39  23  52 W16G25    29.92F WCI  30
6HR MIN TEMP:  26; 6HR MAX TEMP:  39;

Robinson       CLOUDY    36  22  56 S17       30.02F WCI  26
6HR MIN TEMP:  23; 6HR MAX TEMP:  37;

Springfield    MOSUNNY   42  24  49 W16       29.96F WCI  34
6HR MIN TEMP:  23; 6HR MAX TEMP:  42;

Taylorville    MOSUNNY   40  22  48 W17G24    29.96F WCI  31
6HR MIN TEMP:  22; 6HR MAX TEMP:  41;

$$

...REGIONAL REPORTS...


CITY           SKY/WX    TMP DP  RH WIND       PRES   REMARKS
Chicago O`Hare PTSUNNY   32  19  58 W10G20    29.87F WCI  24
Kankakee       SUNNY     37  19  49 W18G26    29.91F WCI  27
Moline         SUNNY     38  24  57 NW20      29.93F WCI  28
Mount Sterling SUNNY     39  24  54 W15       29.97R WCI  31
Mount Vernon   MOSUNNY   43  24  47 SW18      30.03F WCI  35
Pittsfield     MOSUNNY   42  26  52 W13       29.99S WCI  35
Quincy         SUNNY     41  25  53 W16G23    29.99R WCI  33
Rockford       PTSUNNY   32  20  61 NW12      29.92S WCI  23
$$


CITY           SKY/WX    TMP DP  RH WIND       PRES   REMARKS
Burlington     SUNNY     40  25  55 NW14G21   29.96S WCI  32
Cedar Rapids   SUNNY     37  24  59 NW17      29.96R WCI  27
Des Moines     PTSUNNY   43  24  47 NW14G25   30.02F
Kirksville     SUNNY     45  27  49 NW10      30.03R
Ottumwa        SUNNY     42  24  49 NW20G26   30.00S WCI  33
St Louis       PTSUNNY   46  24  42 W16       30.02S
$$


CITY           SKY/WX    TMP DP  RH WIND       PRES   REMARKS
Terre Haute    MOSUNNY   35  19  52 S14       29.97F WCI  26
Evansville     SUNNY     39  23  52 S17G26    30.09F WCI  30
Indianapolis   CLOUDY    33  17  51 SW18      29.97F WCI  22
Lafayette      CLOUDY    35  20  54 SW18G25   29.92F WCI  24
Madison        CLOUDY    28  19  69 NW9       29.89S WCI  19
Milwaukee      CLOUDY    28  19  69 W9        29.87S WCI  19
$$






USA.gov is the U.S. government's official web portal to all federal, state and local government web resources and services.